DELTA 1 DEB

Satellite information

Favourite Embed

Satellite Type and Status

DEBRISIN ORBIT

Key statistics

Satellite DELTA 1 DEB at a glance.

Uptime

17992

Days in orbit

Revolutions

≈ 12.5

Per day

Orbit

SSO

Sun Synchronous Orbit

Inclination

101.7

Latest

Satellite identification and parameters

Extended collection of information and parameters for DELTA 1 DEB.

Object identification

Identified? True

Debris? True

Object name: DELTA 1 DEB

International designator: 1976-077DN

Object number (NORAD): 12533

Object ID (CCSDS): 12533

Country: UNITED STATES OF AMERICA (US)

Current information (Y/N): Y

RCS size: SMALL

Orbital parameters

Period: 115.447 minutes

Inclination: 101.7295 deg

SMA: 7853.841 km

Apoapsis: 1530.235 km

Periapsis: 1421.177 km

RAAN: 271.1074 deg

Eccentricy: 0.006943

Argument of periapsis: 351.9491 deg

Mean anomaly: 33.5959 deg

Mean motion: 12.47324891 rev/day

Mean motion (dot): 0.00000383 rev/day2

B* drag term: 0.0028849 1/REarth

Two-line elements (TLE)

Creation date: Oct. 31, 2025, 11:06 p.m.

Reference frame: TEME

Reference center: EARTH

Epoch: Oct. 31, 2025, 9:15 p.m. UTC

TLE line 0: 0 DELTA 1 DEB

TLE line 1: 1 12533U 76077DN 25304.88552730 .00000383 00000-0 28849-2 0 9990

TLE line 2: 2 12533 101.7295 271.1074 0069430 351.9491 33.5959 12.47324891127822

Live tracking on map

Real-time ground track for satellite DELTA 1 DEB.

In-orbit conjunctions

A list of the most updated potential collisions computed for object DELTA 1 DEB.

Target Orbit TCA Probability of collision Miss distance Type
COSMOS 766 LEO 2024-10-27 07:07:41 0.000432298 301.0 (m) PAYLOAD

Associated space launch

Meteorological satellite using radiometric imaging

DELTA 1 DEB was lifted into orbit during the mission ‘Delta 2310 | NOAA 5’, on board a Delta 2310 space rocket.

The launch took place on July 29, 1976, 5:07 p.m. from Space Launch Complex 2W.

For more information about the launch, click the button.

Launch to space Delta 2310 | NOAA 5
Delta 2310 | NOAA 5

Agency: N/A

Status: Launch Successful

Launch date: July 29, 1976, 5:07 p.m. UTC

Rocket: Delta 2310

Launch pad: Space Launch Complex 2W

Location: Vandenberg SFB, CA, USA

...

Latest news about this satellite

There are no fresh news available about this satellite. Check back as we update our databases every day.


Newsletter sign-up

Weekly statistics, charts and insights to help you stay on top of the space industry.